Location: Peebles
(55.6412°N, 3.1714°W)
Time: 17:51:45
(UTC+01:00)

USA 238 DEB - Pass Details

Date: 25 January 2022
Orbit: 969 x 1243 km, 63.4° (Epoch: 04 May)

Event Time Altitude Azimuth Distance (km) Brightness Sun altitude
Rises 18:10:14 0° 248° (WSW) 3,729 8.5 -13.4°
Reaches altitude 10° 18:12:48 10° 252° (WSW) 2,809 7.4 -13.8°
Maximum altitude 18:19:22 62° 333° (NNW) 1,190 4.0 -14.7°
Enters shadow 18:24:55 17° 51° (NE) 2,482 5.1 -15.4°
